Terug naar catalogus

CZ-6A DEB

ActiefPO
NORAD 61126·DEBRIS·🇨🇳 China

Gelanceerd Aug 6, 2024 vanaf Taiyuan Satellite Launch Center

Loading…

Volgende Passages (komende 24 uur)

TLE

VersSource: Space-Track

Epoch: Sep 14, 2026, 00:06 UTC

1 61126U 24140PU  26257.00424252  .00005972  00000-0  33124-3 0  9997
2 61126  89.1429 269.0007 0190216 121.0954 240.9102 14.99357105112327

Volg CZ-6A DEB in realtime met AllMySat

Download on the App Store